Regional Weather Roundup
Issued by NWS Sterling, VA

Home | Current Version | Previous Version | Graphics & Text | Print | Product List | Glossary On
Versions: 1 2 3 4 5 6 7 8 9 10 11 12 13 14 15 16 17 18 19 20 21 22 23 24 25 26 27 28 29 30 31 32 33 34 35 36 37 38 39 40 41 42 43 44 45 46 47 48 49 50
000
ASUS41 KLWX 310110
RWRLWX

REGIONAL WEATHER ROUNDUP
NATIONAL WEATHER SERVICE BALTIMORE MD/WASHINGTON DC
900 PM EDT WED JUL 30 2014

Note: "FAIR" indicates few or no clouds below 12,000 feet
with no significant weather and/or obstructions to visibility.
 TC=TEMPERATURE CELSIUS

 * =Non NWS site. Station does not report precipitation (e.g. rain,
    snow, etc.), thunder, or fog.

DCZ001-MDZ009-015-VAZ040>042-051-053>054-310200-
WASHINGTON METRO
  /KDAA//-FT BELVOIR

CITY           SKY/WX    TMP DP  RH WIND       PRES   REMARKS
WASHINGTON NAT PTCLDY    75  54  47 S9        30.06R
DULLES         PTCLDY    70  55  59 S6        30.05S
ANDREWS AFB    CLEAR     71  55  58 S8        30.06S
QUANTICO       CLEAR     70  62  76 W3        30.07R
COLLEGE PARK*  CLEAR     75  54  46 S3        30.05R
LEESBURG*      CLEAR     72  59  64 CALM      30.06S
GAITHERSBURG*  CLEAR     72  54  53 CALM      30.10R

$$

MDZ006>007-011-014-310200-
BALTIMORE METRO

CITY           SKY/WX    TMP DP  RH WIND       PRES   REMARKS
BWI AIRPORT    PTCLDY    71  56  58 S5        30.05R
MD SCIENCE CTR   N/A     75  55  49 MISG      30.05R
MARTIN STATE   CLEAR     73  59  60 S5        30.06R
ANNAPOLIS      CLEAR     72  55  55 S3        30.05R
FORT MEADE*    CLEAR     63  59  88 CALM      30.08R

$$

MDZ012-015-019>023-310200-
MARYLAND EASTERN SHORE

CITY           SKY/WX    TMP DP  RH WIND       PRES   REMARKS
OCEAN CITY     CLEAR     62  60  93 CALM      30.06R
SALISBURY      CLEAR     69  56  62 CALM      30.07R
BAY BRIDGE AP*   N/A     72  54  53 S3        30.06R
CAMBRIDGE*     CLEAR     66  55  68 CALM      30.06R
EASTON*        CLEAR     72  57  60 CALM      30.09S

$$

MDZ017>025-310200-
SOUTHERN MARYLAND

CITY           SKY/WX    TMP DP  RH WIND       PRES   REMARKS
PATUXENT RIVER PTCLDY    65  57  75 CALM      30.06R
ST INIGOES     CLEAR     65  57  75 CALM      30.06R
LEONARDTOWN*   CLEAR     66  54  63 CALM      30.08R

$$

MDZ003>005-310200-
NORTH CENTRAL MARYLAND

CITY           SKY/WX    TMP DP  RH WIND       PRES   REMARKS
FREDERICK*     CLEAR     68  59  73 SE3       30.07S
HAGERSTOWN APT MOCLDY    72  55  55 S6        30.05R
WESTMINSTER*   CLEAR     72  57  60 S3        30.06S

$$

MDZ501>502-310200-
WESTERN MARYLAND

CITY           SKY/WX    TMP DP  RH WIND       PRES   REMARKS
OAKLAND*       CLOUDY    55 N/A N/A N3        30.13S HAZE
CUMBERLAND*    CLOUDY    68  54  60 NW7       30.10R

$$

VAZ025>031-310200-
SHENANDOAH VALLEY

CITY           SKY/WX    TMP DP  RH WIND       PRES   REMARKS
WINCHESTER*    PTCLDY    68  55  64 S5        30.06R
STAUNTON*      CLEAR     67  56  67 S3        30.10R

$$

WVZ021-048>050-054>055-310200-
EASTERN WEST VIRGINIA PANHANDLE

CITY           SKY/WX    TMP DP  RH WIND       PRES   REMARKS
MARTINSBURG    PTCLDY    70  54  56 S5        30.05S
PETERSBURG*    MOCLDY    64  56  74 CALM      30.07S

$$

VAZ036>039-050-310200-
CENTRAL FOOTHILLS

CITY           SKY/WX    TMP DP  RH WIND       PRES   REMARKS
CHARLOTTESVILL CLEAR     70  57  63 S6        30.07R
ORANGE*        CLEAR     64  61  88 CALM      30.08S

$$

VAZ055>057-310200-
NORTH AND CENTRAL PIEDMONT

CITY           SKY/WX    TMP DP  RH WIND       PRES   REMARKS
FREDERICKSBRG* CLEAR     69  61  77 CALM      30.05S
STAFFORD*      CLEAR     65  65 100 CALM      30.10S

$$

NCZ024-NYZ072-PAZ021-071-VAZ022-071-310200-
OTHER REGIONAL OBSERVATIONS

CITY           SKY/WX    TMP DP  RH WIND       PRES   REMARKS
NEW YORK CITY  CLEAR     72  55  55 CALM      30.06R
PHILADELPHIA   PTCLDY    74  54  49 S8        30.05R
PITTSBURGH     MOCLDY    64  57  78 SW6       30.05R
ROANOKE        PTCLDY    71  55  56 CALM      30.10S
RICHMOND       PTCLDY    69  59  70 S6        30.07R
RALEIGH        MOCLDY    71  65  81 CALM      30.07R

$$

ANZ530>537-310200-
MARINE OBSERVATIONS

STATION/POSITION TIME  TEMP    WIND        PRES
                       AIR SEA DIR/SP/G
                 (UTC) (F)     (DEG/KT/KT) (MB)
THOMAS PT LIGHT  0100   75 78  210/ 12/ 13 1018.3R
BALT KEY BRIDGE  0100   75     170/ 11/ 12 1016.9R
COVE POINT       0100   73     220/  4/  4 1017.8R
LEWISETTA        0100   72 78  160/  5/  5 1017.8R
SOLOMONS ISLAND  0100      80                N/A
PINEY POINT      0100          190/  7/  8   N/A

$$



USA.gov is the U.S. government's official web portal to all federal, state and local government web resources and services.